{"data":{"norad_id":66730,"epoch":"2026-09-20T04:35:31.623936Z","epoch_age_seconds":44911,"freshness":"FRESH","line1":"1 66730U 25276BS  26263.19133824  .00003908  00000+0  17691-3 0  9990","line2":"2 66730  97.4089 335.3251 0001564  74.1016 286.0392 15.21474726 44870","mean_motion":15.21474726,"eccentricity":0.0001564,"inclination_deg":97.4089,"raan_deg":335.3251,"arg_perigee_deg":74.1016,"mean_anomaly_deg":286.0392,"bstar":0.00017691,"rev_number":4487,"period_min":94.645016140741,"perigee_km":500.3156292236,"apogee_km":502.46754576577,"semimajor_km":6879.5285874947,"source":"CELESTRAK","updated_at":"2026-09-20T09:00:34.752752Z"}}